STARLINK-2700, 48431

Orbit data source: Space-Track

STARLINK-2700, 48431 is a payload satellite owned by SpaceX/Seattle (US) in LEO that was launched on Sun, 09 May 2021 UTC via an FALCON 9 launch vehicle from the Air Force Eastern Test Range (AFETR). Payload-class satellites include a variety of spacecraft equipped with specific instruments for various scientific and technological missions. These include communications satellites like Starlink; space stations such as the ISS; scientific satellites like the Hubble; Earth observation satellites from companies like Planet Labs, Umbra, and HawkEye 360; GPS; miniature CubeSats for education and research; and military/defense satellites.

Loading next visibility...
Identifier
48431, 2021-040D
Orbit
LEO
Country
Flag of USUS
Related business
Manufacturer
SpaceX/Seattle
Mission
Operational Commercial Communications
Bus & Motor
STARLINK, Unknown motor
Mass
260 kg wet, ~248 kg dry
Launch date (UTC)
2021-05-09 (5 years ago)
Launch vehicle
FALCON 9
Launch site
Air Force Eastern Test Range (AFETR)
Object type
Payload
Rocket body
Debris
Shape & HBR
Box + 1 Pan, 10.1 m
Radar Cross Section
13.562 m², Large (>1 m²)

Expand to show TLE details & history
Last TLE update: 2 days ago

TLE from 2 days ago
0 STARLINK-2700
1 48431U 21040D   26171.32789375  .00000673  00000-0  33437-4 0  9998
2 48431  53.1598  35.3117 0001198  92.6195 267.4944 15.31700137282752
Epoch: 2026-06-20T07:52Z
TLE epoch observation values (Epoch: 2026-06-20T07:52:10.019Z)
Latitude
-0.00001°
Longitude
8.72585°
Altitude
471.676 km
Speed
7.631 km/s
True Right ascension
02h 21m 14s
True Declination
0° 00' 00"
Sunlit
Object was in daylight at epoch
Visualization orbit readout
Latitude
Unknown
Longitude
Unknown
Altitude
Unknown
Speed
Unknown
Apparent Right ascension
Unknown
Apparent Declination
Unknown
Sunlit
N/A
Visualization observer readout
Local Sidereal Time
21:25:52
Azimuth
Unknown
Elevation
Unknown
Doppler factor
Unknown
Orbital elements
Apogee altitude
471.817 km
Perigee altitude
470.176 km
Semi-major axis
6,849.133 km
Eccentricity
0.00012
Inclination
53.1598°
RAAN
35.3117°
Arg. of periapsis
92.6195°
True anomaly
267.48069°
Mean anomaly
267.4944°
Eccentric anomaly
267.48754°
Mean motion
3.82904 °/min
Orbital period
94.02 mins
BSTAR
0.000033437
Loading maneuver chart data...
Computing Atmospheric mass density...

Documentation

Showing up to 5 results
|